カタログに戻る

COSMOS 1771

運用中軍事LEO
NORAD 16917·PAYLOAD·🇷🇺 Russia

打ち上げ Aug 20, 1986 から Baikonur Cosmodrome

Loading…

次のパス (今後24時間)

TLE

最新Source: Space-Track

元期: Sep 14, 2026, 00:55 UTC

1 16917U 86062A   26257.03883343 -.00000054  00000-0  31439-4 0  9994
2 16917  64.9820 122.6015 0067434 270.2779  89.0553 13.82652421 24066

AllMySatでCOSMOS 1771をリアルタイム追跡

Download on the App Store